www.pogodaiklimat.ru

Погода и климат >> Архив погоды >> Австралия >> Северная территория >> Остров Маклер


ПОГОДА на Острове Маклер

  • Прогноз погоды на Острове Маклер
  • Монитор погоды на Острове Маклер

АРХИВ ПОГОДЫ на Острове Маклер

Время (UTC), дата Ветер
(напр.,м/с)
 
Видим.   Явления Облачность Т
(С)
Тd
(С)
f
(%)
Тe
(С)
Тes
(С)
Комфортность P
(гПа)
Po
(гПа)
Тmin
(С)
Tmax
(С)
R
(мм)
R24
(мм)
S
(см)
20 18.08 В 4 н/о н/о +24.3 +22.4 89 +32 +32 очень
душно
1013.0 1012.7
23 18.08 В 6 н/о н/о +26.6 +22.9 80 +35 +35 очень
душно
1014.5 1014.2
02 19.08 В 6 н/о н/о +28.2 +23.1 74 +38 +38 очень
душно
1014.4 1014.1 +24.0
05 19.08 В 7 н/о н/о +27.6 +23.4 78 +37 +37 очень
душно
1012.8 1012.5
08 19.08 СВ 8 н/о н/о +26.0 +22.9 83 +35 +35 очень
душно
1011.7 1011.4
11 19.08 СВ 9 н/о н/о +26.3 +23.2 83 +35 +35 очень
душно
1014.2 1013.9
14 19.08 В 11 н/о н/о +26.2 +22.5 80 +34 +34 очень
душно
1015.3 1015.0 +28.7
17 19.08 В 10 н/о н/о +24.5 +20.0 76 +30 +30 очень
душно
1015.0 1014.7
20 19.08 В 12 н/о н/о +24.3 +15.8 59 +27 +27 жарко 1014.9 1014.6
23 19.08 В 13 н/о н/о +25.0 +15.9 57 +28 +28 жарко 1016.7 1016.4
02 20.08 В 14 н/о н/о +24.8 +17.3 63 +29 +29 душно 1016.0 1015.7 +23.9
05 20.08 В 12 н/о н/о +25.9 +16.7 57 +30 +30 душно 1013.2 1012.9
08 20.08 В 9 н/о н/о +25.6 +19.3 68 +31 +31 очень
душно
1013.2 1012.9
11 20.08 В 10 н/о н/о +25.8 +19.2 67 +31 +31 очень
душно
1015.5 1015.2
14 20.08 В 11 н/о н/о +24.6 +18.3 68 +29 +29 душно 1016.3 1016.0 +26.9
17 20.08 В 8 н/о н/о +23.1 +10.5 45 +25 +25 комфорт 1015.0 1014.7
20 20.08 В 10 н/о н/о +22.6 +11.7 50 +25 +25 комфорт 1015.1 1014.8
23 20.08 В 12 н/о н/о +23.8 +13.6 53 +26 +26 жарко 1016.3 1016.0
02 21.08 В 12 н/о н/о +26.4 +15.8 52 +30 +30 душно 1014.5 1014.2 +22.5
05 21.08 В 11 н/о н/о +25.6 +15.9 55 +29 +29 душно 1012.0 1011.7
08 21.08 СВ 8 н/о н/о +25.3 +18.2 65 +30 +30 душно 1012.4 1012.1
11 21.08 СВ 8 н/о н/о +25.4 +19.5 70 +31 +31 очень
душно
1014.6 1014.3
14 21.08 В 11 н/о н/о +24.8 +19.2 71 +30 +30 душно 1015.1 1014.8 +26.8
17 21.08 В 8 н/о н/о +23.2 +17.6 71 +29 +29 душно 1014.4 1014.1
20 21.08 В 9 н/о н/о +22.6 +18.8 79 +28 +28 душно 1014.8 1014.5
23 21.08 В 11 н/о н/о +24.3 +17.8 67 +28 +28 душно 1015.9 1015.6
02 22.08 В 11 н/о н/о +26.2 +17.6 59 +30 +30 душно 1015.0 1014.7 +22.2
05 22.08 В 10 н/о н/о +26.1 +17.7 60 +30 +30 душно 1013.1 1012.8
08 22.08 СВ 9 н/о н/о +25.6 +19.7 70 +31 +31 очень
душно
1013.8 1013.5
11 22.08 СВ 8 н/о н/о +25.6 +20.6 74 +32 +32 очень
душно
1015.3 1015.0
14 22.08 СВ 9 н/о н/о +25.5 +21.4 78 +32 +32 очень
душно
1015.9 1015.6 +26.6
17 22.08 В 7 н/о н/о +23.9 +19.0 74 +29 +29 душно 1014.8 1014.5
20 22.08 В 8 н/о н/о +23.9 +20.6 82 +30 +30 очень
душно
1015.2 1014.9
23 22.08 В 8 н/о н/о +25.2 +21.1 78 +32 +32 очень
душно
1016.4 1016.1
02 23.08 В 6 н/о н/о +25.9 +21.6 77 +33 +33 очень
душно
1015.6 1015.3 +23.6
05 23.08 В 6 н/о н/о +25.5 +20.7 75 +32 +32 очень
душно
1013.3 1013.0
08 23.08 СВ 8 н/о н/о +25.6 +20.4 73 +32 +32 очень
душно
1013.0 1012.7
11 23.08 СВ 7 н/о н/о +25.4 +20.0 72 +31 +31 очень
душно
1014.8 1014.5
14 23.08 СВ 7 н/о н/о +25.1 +19.9 73 +31 +31 очень
душно
1015.0 1014.7 +27.1
17 23.08 В 8 н/о н/о +24.6 +19.0 71 +30 +30 очень
душно
1014.5 1014.2
20 23.08 В 4 н/о н/о +22.1 +17.0 73 +27 +27 душно 1014.6 1014.3
23 23.08 В 5 н/о н/о +25.7 +19.3 68 +31 +31 очень
душно
1016.1 1015.8
02 24.08 В 5 н/о н/о +25.3 +20.1 73 +31 +31 очень
душно
1014.6 1014.3 +22.1
05 24.08 В 6 н/о н/о +25.4 +21.1 77 +32 +32 очень
душно
1012.2 1011.9
08 24.08 СВ 8 н/о н/о +24.6 +19.7 74 +30 +30 очень
душно
1011.7 1011.4
11 24.08 СВ 8 н/о н/о +24.7 +20.2 76 +30 +30 очень
душно
1013.8 1013.5
14 24.08 СВ 8 н/о н/о +24.8 +20.5 77 +31 +31 очень
душно
1014.4 1014.1 +26.9
17 24.08 СВ 9 н/о н/о +24.8 +20.9 79 +31 +31 очень
душно
1012.9 1012.6
20 24.08 В 8 н/о н/о +24.2 +19.9 77 +30 +30 очень
душно
1013.3 1013.0
23 24.08 В 7 н/о н/о +24.5 +19.6 74 +30 +30 очень
душно
1014.8 1014.5
02 25.08 В 8 н/о н/о +25.3 +19.2 69 +30 +30 душно 1014.4 1014.1 +23.8
05 25.08 В 9 н/о н/о +25.1 +19.2 70 +30 +30 душно 1012.0 1011.7
08 25.08 СВ 9 н/о н/о +24.7 +20.6 78 +31 +31 очень
душно
1011.2 1010.9

 

Местоположение метеостанции Остров Маклер (Северная территория, Австралия): широта -11.05 долгота 132.98 высота над уровнем моря 2 м.

В архиве по умолчанию представлена погода на Острове Маклер за последнюю неделю. Архивные данные за месяц целиком и за предыдущие месяцы, начиная с января 2011 года, Вы можете получить, выбрав интересующий диапазон дат из раскрывающегося списка и нажав кнопку "Ввод!".


*Определитесь, кто Вы:
робот инопланетянин человек

Внимание! Время в таблицах - всемирное. Для получения местного времени необходимо прибавить поправку, которая равна 9.5 ч.

Смотрите также архив погоды в соседних городах и на ближайших метеорологических станциях:

Погода в Уорруви (Северная территория, Австралия) (80 км)
Погода в Кейп-Доне (Северная территория, Австралия) (135 км)
Погода в Манингриде (Северная территория, Австралия) (176 км)
Погода в Пойнт Стьюарт (Северная территория, Австралия) (178 км)
Погода в Джаберу (Северная территория, Австралия) (180 км)
Погода в Милинджимби (Северная территория, Австралия) (241 км)
Погода в Милд Пойнт (Северная территория, Австралия) (251 км)
Погода на Центральном плато Арнем (Северная территория, Австралия) (254 км)
Погода в Дарвине (Северная территория, Австралия) (274 км)
Погода в Гарден-Пойнте (Северная территория, Австралия) (282 км)

Пояснения к столбцам:

Ветер - указаны скорость ветра в м/с - средняя за 10 мин, порывы в срок и между сроками (в фигурных скобках) и направление, откуда дует ветер: С - северный, СВ - северо-восточный, В - восточный, ЮВ - юго-восточный, Ю - южный, ЮЗ - юго-западный, З - западный, СЗ - северо-западный.
Видимость - горизонтальная дальность видимости в метрах или километрах. При видимости от 1 до 10 км при отсутствии осадков обычно наблюдается дымка, при ухудшении видимости до 1 км и менее - туман. В сухую погоду видимость может ухудшаться дымом, пылью или мглою.
Явления - указаны атмосферные явления, наблюдавшиеся в срок или в последний час перед сроком; фигурными скобками обозначены явления, наблюдавшиеся между сроками (за 1-3 часа до срока); квадратными скобками обозначены град или гололедные отложения с указанием их диаметра в мм.
Облачность - указаны через наклонную черту общая и нижняя облачность в баллах и высота нижней границы облаков в метрах; квадратными скобками обозначены формы облаков: Ci - перистые, Cs - перисто-слоистые, Cc - перисто-кучевые, Ac - высококучевые, As - высокослоистые, Sc - слоисто-кучевые, Ns - слоисто-дождевые, Cu - кучевые, Cb - кучево-дождевые. Подробнее классификацию облаков см. в Атласе облаков (PDF).
T - Температура воздуха - температура, измеренная на высоте 2 м над землей.
Td - Температура точки росы - температура, при понижении до которой содержащийся в воздухе водяной пар достигнет насыщения.
f - Относительная влажность воздуха - влажноcть воздуха, измеренная на высоте 2 м над землей.
Te - Эффективная температура - температура, которую ощущает одетый по сезону человек в тени. Характеристика душности погоды. При расчете учитывается влияние влажности воздуха и скорости ветра на теплоощущения человека.
Tes - Эффективная температура на солнце - температура, которую ощущает человек, с поправкой на солнечный нагрев. Характеристика знойности погоды. Зависит от высоты солнца над горизонтом, облачности и скорости ветра. Ночью, в пасмурную погоду, а также при ветре 12 м/с и более поправка равна нулю.
P - Атмосферное давление - приведенное к уровню моря атмосферное давление.
Po - Атмосферное давление - измеренное на уровне метеостанции атмосферное давление.
Tmin - Минимальная температура - минимум температуры воздуха на высоте 2 м над землей.
Tmax - Максимальная температура - максимум температуры воздуха на высоте 2 м над землей.
R - Количество осадков - Количество выпавших осадков за период времени, мм. При наведении курсора мыши на число - период времени, за который выпало указанное количество осадков.
R24 - Количество осадков - Количество выпавших осадков за 24 часа, мм.
S - Снежный покров - Высота снежного покрова, см. При наведении курсора мыши на число - состояние снежного покрова и степень покрытия местности в баллах.